Weather History for Cape Town, South Africa

Change the Weather History Date:

Tuesday, October 22, 2013

  Actual Average Record
Temperature  
Mean Temperature 60 °F -  
Max Temperature 66 °F 71 °F 78 °F (2005)
Min Temperature 54 °F 53 °F 42 °F (1998)
Degree Days  
Heating Degree Days 5    
Growing Degree Days 10 (Base 50)    
Moisture  
Dew Point 48 °F    
Average Humidity 61    
Maximum Humidity 77    
Minimum Humidity 45    
Precipitation  
Precipitation 0.00 in 0.00 in - ()
Sea Level Pressure  
Sea Level Pressure 30.17 in    
Wind  
Wind Speed 10 mph ()    
Max Wind Speed 15 mph    
Max Gust Speed -    
Visibility 8.5 miles    
Events      
Averages and records for this station are not official NWS values.
T = Trace of Precipitation, MM = Missing Value Source: Averaged Metar Reports

Daily Weather History Graph

Daily Weather History Graph

Search for Another Location

Airport:

Trip Planner

Search our weather history database for the weather conditions in past years. The results will help you decide how hot, cold, wet, or windy it might be!

Date:

Astronomy

Oct. 22, 2013 Rise Set
Actual Time 5:55 AM SAST 7:05 PM SAST
Civil Twilight 5:29 AM SAST 7:30 PM SAST
Nautical Twilight 4:58 AM SAST 8:01 PM SAST
Astronomical Twilight 4:27 AM SAST 8:33 PM SAST
Moon 10:29 PM SAST (10/22) 8:11 AM SAST (10/22)
Length of Visible Light 14h 01m
Length of Day
13h 09m
Waning Gibbous, 88% of the Moon is Illuminated
Oct 22
Waning Gibbous
Oct 27
Last Quarter
Nov 3
New
Nov 10
First Quarter
Nov 17
Full

Hourly Weather History & Observations

Time (SAST) Temp. Dew Point Humidity Pressure Visibility Wind Dir Wind Speed Gust Speed Precip Events Conditions
12:00 AM 57.2 °F 44.6 °F 63% 30.21 in - South 12.7 mph - N/A   Clear
1:00 AM 57.2 °F 44.6 °F 63% 30.18 in - South 13.8 mph - N/A   Clear
2:00 AM 55 °F 43 °F 54% 30.20 in 25 mi South 6.9 mph - -  
2:00 AM 55.4 °F 42.8 °F 63% 30.18 in - South 8.1 mph - N/A   Clear
3:00 AM 55.4 °F 44.6 °F 67% 30.18 in - South 12.7 mph - N/A   Clear
4:00 AM 55.4 °F 44.6 °F 67% 30.15 in - South 11.5 mph - N/A   Clear
5:00 AM 56 °F 45 °F 56% 30.18 in 25 mi South 9.2 mph - -  
5:00 AM 55.4 °F 44.6 °F 67% 30.15 in - South 11.5 mph - N/A   Clear
6:00 AM 55.4 °F 46.4 °F 72% 30.15 in - South 10.4 mph - N/A   Clear
7:00 AM 57.2 °F 46.4 °F 67% 30.18 in - SSW 9.2 mph - N/A   Clear
8:00 AM 58 °F 46 °F 56% 30.21 in 25 mi South 11.5 mph - -   Partly Cloudy
8:00 AM 59.0 °F 46.4 °F 63% 30.18 in - South 11.5 mph - N/A   Clear
9:00 AM 60.8 °F 46.4 °F 59% 30.18 in - South 11.5 mph - N/A   Clear
10:00 AM 62.6 °F 48.2 °F 59% 30.21 in - South 10.4 mph - N/A   Clear
11:00 AM 64.4 °F 46.4 °F 52% 30.18 in - South 8.1 mph - N/A   Clear
12:00 PM 66.2 °F 48.2 °F 52% 30.18 in 6.2 mi SSW 8.1 mph - N/A   Partly Cloudy
1:00 PM 66.2 °F 48.2 °F 52% 30.15 in 6.2 mi South 9.2 mph - N/A   Partly Cloudy
2:00 PM 65 °F 49 °F 47% 30.17 in 19 mi South 11.5 mph - -   Scattered Clouds
2:00 PM 64.4 °F 48.2 °F 56% 30.15 in 6.2 mi South 11.5 mph - N/A   Partly Cloudy
3:00 PM 64.4 °F 48.2 °F 56% 30.15 in 6.2 mi South 12.7 mph - N/A   Partly Cloudy
4:00 PM 66.2 °F 50.0 °F 56% 30.12 in 6.2 mi South 13.8 mph - N/A   Partly Cloudy
5:00 PM 64 °F 48 °F 45% 30.15 in 19 mi South 13.8 mph - -   Scattered Clouds
5:00 PM 64.4 °F 48.2 °F 56% 30.12 in 6.2 mi South 15.0 mph - N/A   Partly Cloudy
6:00 PM 62.6 °F 48.2 °F 59% 30.12 in 6.2 mi SSW 12.7 mph - N/A   Partly Cloudy
7:00 PM 60.8 °F 50.0 °F 68% 30.15 in 6.2 mi SSW 12.7 mph - N/A   Partly Cloudy
8:00 PM 60 °F 51 °F 63% 30.17 in 12 mi South 10.4 mph - -   Mostly Cloudy
8:00 PM 60.8 °F 50.0 °F 68% 30.15 in 6.2 mi South 10.4 mph - N/A   Mostly Cloudy
9:00 PM 59.0 °F 51.8 °F 77% 30.18 in 6.2 mi SSE 10.4 mph - N/A   Mostly Cloudy
10:00 PM 60.8 °F 51.8 °F 72% 30.18 in 6.2 mi South 10.4 mph - N/A   Mostly Cloudy
11:00 PM 60 °F 52 °F 67% 30.18 in 12 mi South 12.7 mph - -   Mostly Cloudy
11:00 PM 60.8 °F 51.8 °F 72% 30.18 in 6.2 mi South 12.7 mph - N/A   Mostly Cloudy